Home   Weather   Dublin   Past weeks
Flag for Ireland

Past Weather in Dublin, Ireland — Yesterday and Last 2 Weeks

Now
48 °F

Partly sunny.


Feels Like: 46 °F
Forecast: N/A
Wind: 5 mph from East

Location: Dublin Airport

Current Time: Mar 23, 2019 at 5:14:16 pm

Latest Report: Mar 23, 2019 at 4:30 pm


Visibility: N/A

Pressure: 30.51 "Hg

Humidity: 54%

Dew Point: 32 °F

Location of DublinLocation

Past Weather in Dublin — Graph

°F

Dublin Temperature Yesterday

Maximum temperature yesterday: 52 °F (at 12:00 am)
Minimum temperature yesterday: 41 °F (at 9:30 pm)
Average temperature yesterday: 49 °F

High & Low Weather Summary for the Past Weeks

 TemperatureHumidityPressure
High63 °F (Mar 20, 1:30 pm)100% (Mar 15, 3:30 am)30.54 "Hg (Mar 15, 3:30 am)
Low34 °F (Mar 10, 2:30 pm)50% (Mar 23, 2:00 pm)29.12 "Hg (Mar 16, 1:00 pm)
Average46 °F80%29.92 "Hg
* Reported Mar 8 4:00 pm — Mar 23 4:00 pm, Dublin. Weather by CustomWeather, © 2019

Note: Actual official high and low records may vary slightly from our data, if they occured in-between our weather recording intervals... More about our weather records

Advertising

Dublin Weather History for the Previous 24 Hours

Scroll right to see more
 ConditionsComfort  
Time TempWeatherWind HumidityBarometerVisibility
4:00 pm
Sat, Mar 23
48 °FBroken clouds.5 mph50%30.51 "HgN/A
3:30 pm48 °FBroken clouds.6 mph54%30.54 "HgN/A
3:00 pm48 °FBroken clouds.2 mph58%30.54 "HgN/A
2:30 pm48 °FPartly sunny.2 mph50%30.54 "HgN/A
2:00 pm48 °FPartly sunny.3 mph50%30.54 "HgN/A
1:30 pm46 °FPartly sunny.7 mph53%30.54 "HgN/A
1:00 pm48 °FPartly sunny.6 mph58%30.54 "HgN/A
12:30 pm46 °FPartly sunny.7 mph62%30.54 "HgN/A
12:00 pm46 °FPartly sunny.6 mph57%30.54 "HgN/A
11:30 am46 °FPartly sunny.8 mph66%30.54 "HgN/A
11:00 am46 °FPartly sunny.7 mph66%30.54 "HgN/A
10:30 am45 °FPartly sunny.7 mph71%30.54 "HgN/A
10:00 am43 °FSunny.9 mph81%30.54 "Hg10 mi
9:30 am43 °FSunny.8 mph76%30.54 "Hg10 mi
9:00 am41 °FSunny.8 mph76%30.54 "Hg10 mi
8:30 am39 °FSunny.7 mph81%30.54 "Hg10 mi
8:00 am37 °FPassing clouds.5 mph87%30.51 "HgN/A
7:00 am37 °FPassing clouds.5 mph87%30.51 "HgN/A
6:30 am37 °FPartly sunny.5 mph81%30.48 "HgN/A
6:00 am36 °FPassing clouds.5 mph87%30.48 "HgN/A
5:30 am37 °FPassing clouds.5 mph81%30.48 "HgN/A
5:00 am37 °FPassing clouds.5 mph81%30.45 "HgN/A
4:30 am37 °FPassing clouds.7 mph87%30.45 "HgN/A
4:00 am39 °FPassing clouds.7 mph81%30.45 "HgN/A
3:30 am39 °FPassing clouds.7 mph81%30.45 "HgN/A
3:00 am39 °FPassing clouds.7 mph81%30.45 "HgN/A
2:30 am39 °FPassing clouds.10 mph81%30.42 "HgN/A
2:00 am41 °FPassing clouds.9 mph76%30.42 "HgN/A
1:30 am41 °FPassing clouds.10 mph81%30.42 "HgN/A
1:00 am41 °FPassing clouds.9 mph81%30.42 "HgN/A
12:30 am41 °FPassing clouds.13 mph81%30.39 "HgN/A
12:00 am41 °FPassing clouds.12 mph81%30.39 "HgN/A
11:30 pm
Fri, Mar 22
41 °FPassing clouds.13 mph76%30.39 "HgN/A
11:00 pm41 °FPassing clouds.13 mph76%30.36 "HgN/A
10:30 pm43 °FPassing clouds.12 mph71%30.36 "HgN/A
10:00 pm43 °FPassing clouds.9 mph71%30.36 "HgN/A
9:30 pm41 °FPassing clouds.9 mph76%30.36 "HgN/A
9:00 pm43 °FPassing clouds.10 mph71%30.33 "HgN/A
8:30 pm43 °FPassing clouds.12 mph71%30.33 "HgN/A
8:00 pm45 °FPassing clouds.14 mph71%30.30 "HgN/A
7:30 pm46 °FPassing clouds.12 mph66%30.30 "HgN/A
7:00 pm46 °FPassing clouds.13 mph62%30.27 "HgN/A
6:30 pm48 °FPartly sunny.14 mph62%30.27 "HgN/A
6:00 pm48 °FPartly sunny.14 mph62%30.24 "HgN/A
5:30 pm50 °FPartly sunny.20 mph62%30.24 "HgN/A
5:00 pm50 °FPartly sunny.13 mph71%30.21 "HgN/A
Weather by CustomWeather, © 2019

See weather overview